Tracking 19564 objects as of 18-Mar-2019
HD Live streaming from Space Station
objects crossing your sky now

ARABSAT 2B

Track ARABSAT 2B now!
ARABSAT 2B is classified as:


NORAD ID: 24652
Int'l Code: 1996-063A
Perigee: 36,015.6 km
Apogee: 36,054.8 km
Inclination: 5.0 °
Period: 1,448.5 minutes
Semi major axis: 42406 km
RCS: 3.8888 m2 (large)
Launch date: November 13, 1996
Source: Arab Satellite Communications Organization (AB)
Launch site: FRENCH GUIANA (FRGUI)

Second generation; radio and tv communications to Middle East.
aabbcc
Your satellite tracking list
Your tracking list is empty




NASA's NSSDC Master Catalog

Two Line Element Set (TLE):
1 24652U 96063A   19077.34216017 -.00000209  00000-0  00000+0 0  9992
2 24652   4.9768  67.4788 0004620 280.3558 302.6049  0.99416460 82124
Source of the keplerian elements: AFSPC